Location: ??
(34.9170°N, 135.5016°E)
Time: 08:00:52
(UTC+00:00)

Explorer 7 - Pass Details

Date: 04 March 2021
Orbit: 484 x 677 km, 50.3° (Epoch: 17 April)

Event Time Altitude Azimuth Distance (km) Brightness Sun altitude
Rises 08:27:36 0° 316° (NW) 2,795 10.9 4.9°
Reaches altitude 10° 08:31:42 10° 354° (N) 1,835 9.5 4.1°
Maximum altitude 08:32:49 11° 10° (N) 1,761 9.2 3.9°
Drops below altitude 10° 08:33:56 10° 26° (NNE) 1,803 9.1 3.7°
Sets 08:37:48 0° 64° (ENE) 2,639 9.7 2.9°
